Flag for Germany Weather past 2 weeks in Konstanz, Baden-Württemberg, Germany

Now
53 °F

Overcast.


Feels Like: 53 °F
Forecast: 40 / 62 °F
Wind: 2 mph from North

Location: Konstanz

Current Time: May 26, 2015 at 10:48:32 AM

Latest Report: May 26, 2015 at 10:00 AM


Visibility: 7 mi

Pressure: 30.03 "Hg

Humidity: 86%

Dew point: 49 °F

Location of KonstanzLocation

Historic Weather in Konstanz — Graph

°F

Konstanz temperature yesterday

Maximum temperature yesterday: 65 °F (at 12:00 PM)
Minimum temperature yesterday: 53 °F (at 10:00 PM)
Average temperature yesterday: 58 °F

Past Weeks' High & Low Weather Summary

 TemperatureHumidityPressure
High84 °F (May 12, 6:00 PM)97% (May 15, 2:00 PM)30.33 "Hg (May 15, 2:00 PM)
Low44 °F (May 21, 4:00 AM)26% (May 12, 7:00 PM)29.70 "Hg (May 18, 7:00 PM)
Average58 °F73%30.05 "Hg
* Reported May 11 10:00 AM — May 26 10:00 AM, Konstanz, Weather by CustomWeather, © 2015

Note: Actual official high and low records may vary slightly from our data, if they occured in-between our weather recording intervals... More about our weather records

Advertising

Konstanz weather history for previous 24 hours

 ConditionsComfort  
Time TempWeatherWind HumidityBarometerVisibility
10:00 AM
Tue, May 26
53 °FOvercast.2 mph86%30.03 "Hg7 mi
9:00 AM53 °FLight rain. Overcast.2 mph92%30.01 "Hg9 mi
8:00 AM51 °FLight rain. Overcast.2 mph95%29.99 "Hg5 mi
7:00 AM51 °FRain. Overcast.2 mph95%29.98 "Hg6 mi
5:00 AM52 °FPassing clouds.2 mph96%29.96 "Hg11 mi
4:00 AM53 °FOvercast.2 mph95%29.96 "Hg12 mi
3:00 AM53 °FOvercast.2 mph97%29.96 "Hg18 mi
2:00 AM53 °FOvercast.2 mph96%29.96 "Hg22 mi
1:00 AM53 °FRain. Low clouds.2 mph97%29.97 "Hg2 mi
12:00 AM54 °FLight rain. Low clouds.2 mph96%29.97 "Hg7 mi
11:00 PM
Mon, May 25
53 °FLight rain. Low clouds.1 mph96%29.97 "Hg5 mi
10:00 PM53 °FLight rain. Overcast.1 mph97%29.97 "Hg4 mi
9:00 PM54 °FLight rain. Overcast.2 mph94%29.96 "Hg4 mi
8:00 PM56 °FLight rain. Overcast.1 mph91%29.94 "Hg4 mi
7:00 PM56 °FLight rain. Partly sunny.1 mph88%29.93 "Hg8 mi
6:00 PM56 °FLight rain. Partly sunny.3 mph83%29.94 "Hg14 mi
5:00 PM58 °FLight rain. Overcast.6 mph80%29.93 "Hg10 mi
4:00 PM63 °FOvercast.1 mph63%29.90 "Hg19 mi
3:00 PM64 °FOvercast.2 mph66%29.91 "Hg19 mi
2:00 PM63 °FOvercast.2 mph68%29.93 "Hg22 mi
1:00 PM65 °FScattered clouds.3 mph60%29.94 "Hg22 mi
12:00 PM65 °FPartly sunny.2 mph62%29.96 "Hg22 mi
11:00 AM62 °FOvercast.1 mph66%29.98 "Hg22 mi
10:00 AM58 °FOvercast.1 mph75%30.00 "Hg22 mi
Weather by CustomWeather, © 2015

See weather overviewHow to use our weather pages